date,City,No. Stations,Air Quality,Index Value,Prominent Pollutant
2018-02-08,Siliguri,1.0,Severe,415,PM2.5
2018-02-09,Siliguri,1.0,Very Poor,399,PM2.5
2018-02-10,Siliguri,1.0,Very Poor,368,PM2.5
2018-02-11,Siliguri,1.0,Very Poor,327,PM2.5
2018-02-12,Siliguri,1.0,Poor,284,PM2.5
2018-02-13,Siliguri,1.0,Poor,269,PM2.5
2018-02-14,Siliguri,1.0,Very Poor,348,PM2.5
2018-02-15,Siliguri,1.0,Moderate,180,PM2.5
2018-02-16,Siliguri,1.0,Poor,291,PM2.5
2018-02-17,Siliguri,1.0,Poor,282,PM2.5
2018-02-18,Siliguri,1.0,Very Poor,343,PM2.5
2018-02-19,Siliguri,1.0,Very Poor,338,PM2.5
2018-02-20,Siliguri,1.0,Very Poor,337,PM2.5
2018-02-21,Siliguri,1.0,Very Poor,312,PM2.5
2018-02-22,Siliguri,1.0,Very Poor,324,PM2.5
2018-02-23,Siliguri,1.0,Poor,260,PM2.5
2018-02-24,Siliguri,1.0,Moderate,198,PM2.5
2018-02-25,Siliguri,1.0,Poor,240,PM2.5
2018-02-26,Siliguri,1.0,Poor,219,PM2.5
2018-02-27,Siliguri,1.0,Satisfactory,79,PM2.5
2018-02-28,Siliguri,1.0,Moderate,156,PM2.5
2018-03-02,Siliguri,1.0,Moderate,158,PM10
2018-03-03,Siliguri,1.0,Moderate,140,PM2.5
2018-03-04,Siliguri,1.0,Moderate,184,PM2.5
2018-03-05,Siliguri,1.0,Moderate,131,PM2.5
2018-03-06,Siliguri,1.0,Moderate,163,PM2.5
2018-03-07,Siliguri,1.0,Poor,207,PM2.5
2018-03-08,Siliguri,1.0,Poor,249,PM2.5
2018-03-09,Siliguri,1.0,Poor,278,PM2.5
2018-03-10,Siliguri,1.0,Poor,201,PM2.5
2018-03-11,Siliguri,1.0,Poor,263,PM2.5
2018-03-12,Siliguri,1.0,Moderate,127,PM2.5
2018-03-13,Siliguri,1.0,Satisfactory,73,PM2.5
2018-03-14,Siliguri,1.0,Moderate,183,PM2.5
2018-03-15,Siliguri,1.0,Poor,269,PM2.5
2018-03-16,Siliguri,1.0,Very Poor,319,PM2.5
2018-03-17,Siliguri,1.0,Poor,291,PM2.5
2018-03-18,Siliguri,1.0,Poor,280,PM2.5
2018-03-19,Siliguri,1.0,Very Poor,336,PM2.5
2018-03-20,Siliguri,1.0,Very Poor,359,PM2.5
2018-03-21,Siliguri,1.0,Very Poor,376,PM2.5
2018-03-22,Siliguri,1.0,Very Poor,325,PM2.5
2018-03-23,Siliguri,1.0,Poor,228,PM2.5
2018-03-24,Siliguri,1.0,Poor,220,PM2.5
2018-03-25,Siliguri,1.0,Poor,203,PM2.5
2018-03-26,Siliguri,1.0,Poor,295,PM2.5
2018-03-27,Siliguri,1.0,Moderate,178,PM2.5
2018-03-28,Siliguri,1.0,Moderate,196,PM2.5
2018-03-29,Siliguri,1.0,Poor,282,PM2.5
2018-03-30,Siliguri,1.0,Moderate,110,PM2.5
2018-03-31,Siliguri,1.0,Satisfactory,81,OZONE
2018-04-01,Siliguri,1.0,Satisfactory,87,OZONE
2018-04-02,Siliguri,1.0,Poor,221,PM2.5
2018-04-03,Siliguri,1.0,Poor,252,PM2.5
2018-04-04,Siliguri,1.0,Poor,272,PM2.5
2018-04-05,Siliguri,1.0,Poor,236,PM2.5
2018-04-06,Siliguri,1.0,Moderate,176,PM2.5
2018-04-07,Siliguri,1.0,Poor,214,PM2.5
2018-04-08,Siliguri,1.0,Satisfactory,90,PM2.5
2018-04-09,Siliguri,1.0,Satisfactory,75,PM2.5
2018-04-10,Siliguri,1.0,Moderate,107,PM2.5
2018-04-11,Siliguri,1.0,Satisfactory,68,OZONE
2018-04-12,Siliguri,1.0,Satisfactory,65,OZONE
2018-04-13,Siliguri,1.0,Satisfactory,72,OZONE
2018-04-14,Siliguri,1.0,Satisfactory,81,OZONE
2018-04-15,Siliguri,1.0,Satisfactory,82,PM10
2018-04-16,Siliguri,1.0,Satisfactory,68,OZONE
2018-04-17,Siliguri,1.0,Satisfactory,85,PM10
2018-04-18,Siliguri,1.0,Satisfactory,66,OZONE
2018-04-24,Siliguri,1.0,Moderate,104,PM10
2018-04-25,Siliguri,1.0,Satisfactory,95,PM10
2018-04-26,Siliguri,1.0,Satisfactory,88,OZONE
2018-04-27,Siliguri,1.0,Satisfactory,83,OZONE
2018-04-28,Siliguri,1.0,Moderate,104,PM10
2018-04-29,Siliguri,1.0,Moderate,106,PM10
2018-05-03,Siliguri,1.0,Satisfactory,55,OZONE
2018-05-04,Siliguri,1.0,Satisfactory,58,OZONE
2018-05-05,Siliguri,1.0,Satisfactory,66,OZONE
2018-05-06,Siliguri,1.0,Satisfactory,63,PM10
2018-05-07,Siliguri,1.0,Satisfactory,52,PM10
2018-05-08,Siliguri,1.0,Satisfactory,65,PM10
2018-05-09,Siliguri,1.0,Satisfactory,74,OZONE
2018-05-10,Siliguri,1.0,Satisfactory,59,OZONE
2018-05-11,Siliguri,1.0,Satisfactory,75,OZONE
2018-05-12,Siliguri,1.0,Satisfactory,73,PM10
2018-05-13,Siliguri,1.0,Satisfactory,94,PM10
2018-05-14,Siliguri,1.0,Satisfactory,60,OZONE
2018-05-15,Siliguri,1.0,Satisfactory,65,OZONE
2018-05-16,Siliguri,1.0,Satisfactory,72,OZONE
2018-05-17,Siliguri,1.0,Satisfactory,70,PM10
2018-05-18,Siliguri,1.0,Satisfactory,72,PM10
2018-05-19,Siliguri,1.0,Satisfactory,64,PM10
2018-05-20,Siliguri,1.0,Satisfactory,81,PM10
2018-05-21,Siliguri,1.0,Satisfactory,55,PM10
2018-05-22,Siliguri,1.0,Moderate,100,PM2.5
2018-05-23,Siliguri,1.0,Satisfactory,61,PM2.5
2018-05-24,Siliguri,1.0,Good,45,CO
2018-05-25,Siliguri,1.0,Satisfactory,50,PM10
2018-05-26,Siliguri,1.0,Satisfactory,59,PM10
2018-05-27,Siliguri,1.0,Satisfactory,54,OZONE
2018-05-28,Siliguri,1.0,Satisfactory,77,OZONE
2018-05-29,Siliguri,1.0,Satisfactory,74,OZONE
2018-05-30,Siliguri,1.0,Satisfactory,65,PM10
2018-05-31,Siliguri,1.0,Satisfactory,62,PM10
2018-06-02,Siliguri,1.0,Satisfactory,63,OZONE
2018-06-03,Siliguri,1.0,Satisfactory,53,PM2.5
2018-06-04,Siliguri,1.0,Satisfactory,55,PM10
2018-06-05,Siliguri,1.0,Satisfactory,70,PM10
2018-06-06,Siliguri,1.0,Satisfactory,89,PM2.5
2018-06-07,Siliguri,1.0,Satisfactory,50,PM2.5
2018-06-08,Siliguri,1.0,Good,46,CO
2018-06-09,Siliguri,1.0,Satisfactory,61,PM2.5
2018-06-10,Siliguri,1.0,Satisfactory,58,PM10
2018-06-11,Siliguri,1.0,Good,43,CO
2018-06-12,Siliguri,1.0,Good,48,CO
2018-06-13,Siliguri,1.0,Good,45,CO
2018-06-15,Siliguri,1.0,Satisfactory,82,PM10
2018-06-16,Siliguri,1.0,Satisfactory,92,PM10
2018-06-17,Siliguri,1.0,Satisfactory,63,PM10
2018-06-19,Siliguri,1.0,Satisfactory,86,PM10
2018-06-20,Siliguri,1.0,Satisfactory,68,PM10
2018-06-21,Siliguri,1.0,Satisfactory,64,PM2.5
2018-06-22,Siliguri,1.0,Satisfactory,63,PM2.5
2018-06-23,Siliguri,1.0,Good,49,PM2.5
2018-06-24,Siliguri,1.0,Good,46,PM2.5
2018-06-27,Siliguri,1.0,Satisfactory,65,PM2.5
2018-06-28,Siliguri,1.0,Good,42,CO
2018-06-29,Siliguri,1.0,Good,42,PM2.5
2018-06-30,Siliguri,1.0,Good,39,CO
2018-07-01,Siliguri,1.0,Good,44,CO
2018-07-02,Siliguri,1.0,Good,47,CO
2018-07-03,Siliguri,1.0,Good,36,PM10
2018-07-04,Siliguri,1.0,Good,42,CO
2018-07-05,Siliguri,1.0,Good,49,PM2.5
2018-07-06,Siliguri,1.0,Satisfactory,66,PM2.5
2018-07-07,Siliguri,1.0,Satisfactory,74,PM10
2018-07-08,Siliguri,1.0,Good,46,PM2.5
2018-07-10,Siliguri,1.0,Good,35,CO
2018-07-11,Siliguri,1.0,Good,38,CO
2018-07-12,Siliguri,1.0,Satisfactory,50,PM10
2018-07-13,Siliguri,1.0,Good,42,PM10
2018-07-17,Siliguri,1.0,Good,35,CO
2018-07-18,Siliguri,1.0,Good,35,CO
2018-07-19,Siliguri,1.0,Good,49,PM10
2018-07-20,Siliguri,1.0,Satisfactory,57,PM10
2018-07-21,Siliguri,1.0,Good,40,CO
2018-07-22,Siliguri,1.0,Good,43,CO
2018-07-23,Siliguri,1.0,Good,32,CO
2018-07-24,Siliguri,1.0,Good,36,CO
2018-07-25,Siliguri,1.0,Good,37,CO
2018-07-26,Siliguri,1.0,Good,34,CO
2018-07-27,Siliguri,1.0,Good,39,PM10
2018-07-28,Siliguri,1.0,Good,35,CO
2018-07-29,Siliguri,1.0,Good,41,CO
2018-07-30,Siliguri,1.0,Good,43,CO
2018-07-31,Siliguri,1.0,Good,39,PM10
2018-08-01,Siliguri,1.0,Good,41,CO
2018-08-02,Siliguri,1.0,Good,44,PM10
2018-08-03,Siliguri,1.0,Good,40,CO
2018-08-04,Siliguri,1.0,Good,44,PM10
2018-08-05,Siliguri,1.0,Satisfactory,51,PM10
2018-08-06,Siliguri,1.0,Good,45,PM10
2018-08-08,Siliguri,1.0,Good,39,PM10
2018-08-09,Siliguri,1.0,Satisfactory,52,PM10
2018-08-10,Siliguri,1.0,Good,42,PM10
2018-08-11,Siliguri,1.0,Good,28,PM10
2018-08-12,Siliguri,1.0,Good,30,PM2.5
2018-08-13,Siliguri,1.0,Good,28,PM2.5
2018-08-14,Siliguri,1.0,Good,37,PM10
2018-08-15,Siliguri,1.0,Good,31,PM10
2018-08-16,Siliguri,1.0,Good,26,PM10
2018-08-17,Siliguri,1.0,Good,46,PM10
2018-08-18,Siliguri,1.0,Satisfactory,50,PM10
2018-08-19,Siliguri,1.0,Satisfactory,53,PM10
2018-08-21,Siliguri,1.0,Good,28,PM10
2018-08-22,Siliguri,1.0,Good,32,PM10
2018-08-23,Siliguri,1.0,Good,36,PM10
2018-08-24,Siliguri,1.0,Good,32,CO
2018-08-25,Siliguri,1.0,Good,31,PM10
2018-08-26,Siliguri,1.0,Good,32,CO
2018-08-28,Siliguri,1.0,Good,36,CO
2018-08-29,Siliguri,1.0,Good,38,PM10
2018-08-30,Siliguri,1.0,Good,32,PM10
2018-09-01,Siliguri,1.0,Good,48,PM10
2018-09-02,Siliguri,1.0,Good,33,CO
2018-09-03,Siliguri,1.0,Good,34,CO
2018-09-05,Siliguri,1.0,Good,47,PM10
2018-09-06,Siliguri,1.0,Good,45,PM10
2018-09-07,Siliguri,1.0,Good,40,PM10
2018-09-08,Siliguri,1.0,Satisfactory,58,PM10
2018-09-09,Siliguri,1.0,Good,48,PM10
2018-09-11,Siliguri,1.0,Good,33,CO
2018-09-12,Siliguri,1.0,Good,32,CO
2018-09-13,Siliguri,1.0,Good,37,PM10
2018-09-14,Siliguri,1.0,Good,36,CO
2018-09-15,Siliguri,1.0,Good,44,PM10
2018-09-16,Siliguri,1.0,Satisfactory,53,PM10
2018-09-17,Siliguri,1.0,Satisfactory,65,PM10
2018-09-18,Siliguri,1.0,Satisfactory,69,PM10
2018-09-19,Siliguri,1.0,Satisfactory,76,PM10
2018-09-20,Siliguri,1.0,Satisfactory,63,PM10
2018-09-21,Siliguri,1.0,Satisfactory,54,PM10
2018-09-22,Siliguri,1.0,Good,30,PM10
2018-09-23,Siliguri,1.0,Satisfactory,54,PM10
2018-09-24,Siliguri,1.0,Satisfactory,62,PM10
2018-09-25,Siliguri,1.0,Satisfactory,54,PM10
2018-09-26,Siliguri,1.0,Satisfactory,80,PM10
2018-09-27,Siliguri,1.0,Satisfactory,59,PM10
2018-09-28,Siliguri,1.0,Satisfactory,80,PM10
2018-09-29,Siliguri,1.0,Satisfactory,73,PM10
2018-09-30,Siliguri,1.0,Satisfactory,82,PM10
2018-10-01,Siliguri,1.0,Satisfactory,74,PM2.5
2018-10-02,Siliguri,1.0,Satisfactory,87,PM10
2018-10-03,Siliguri,1.0,Satisfactory,93,PM10
2018-10-04,Siliguri,1.0,Satisfactory,77,PM10
2018-10-05,Siliguri,1.0,Satisfactory,88,PM10
2018-10-06,Siliguri,1.0,Satisfactory,90,PM10
2018-10-07,Siliguri,1.0,Satisfactory,89,PM10
2018-10-08,Siliguri,1.0,Satisfactory,81,PM10
2018-10-09,Siliguri,1.0,Satisfactory,91,PM10
2018-10-10,Siliguri,1.0,Satisfactory,80,PM10
2018-10-11,Siliguri,1.0,Satisfactory,80,PM10
2018-10-12,Siliguri,1.0,Good,47,PM10
2018-10-13,Siliguri,1.0,Satisfactory,61,PM10
2018-10-14,Siliguri,1.0,Satisfactory,82,PM2.5
2018-10-15,Siliguri,1.0,Satisfactory,98,PM10
2018-10-16,Siliguri,1.0,Moderate,136,PM2.5
2018-10-17,Siliguri,1.0,Moderate,116,PM10
2018-10-18,Siliguri,1.0,Moderate,111,PM10
2018-10-19,Siliguri,1.0,Satisfactory,88,PM10
2018-10-20,Siliguri,1.0,Satisfactory,92,PM10
2018-10-21,Siliguri,1.0,Satisfactory,95,PM10
2018-10-22,Siliguri,1.0,Moderate,101,PM10
2018-10-23,Siliguri,1.0,Satisfactory,98,PM10
2018-10-24,Siliguri,1.0,Satisfactory,91,PM2.5
2018-10-25,Siliguri,1.0,Moderate,122,PM10
2018-10-26,Siliguri,1.0,Satisfactory,85,PM10
2018-10-27,Siliguri,1.0,Satisfactory,85,PM10
2018-10-28,Siliguri,1.0,Satisfactory,91,PM10
2018-10-29,Siliguri,1.0,Satisfactory,77,PM10
2018-10-30,Siliguri,1.0,Satisfactory,89,PM10
2018-10-31,Siliguri,1.0,Satisfactory,87,PM10
2018-11-01,Siliguri,1.0,Satisfactory,88,PM10
2018-11-02,Siliguri,1.0,Satisfactory,96,PM10
2018-11-03,Siliguri,1.0,Moderate,101,PM10
2018-11-04,Siliguri,1.0,Moderate,104,PM10
2018-11-05,Siliguri,1.0,Moderate,164,PM2.5
2018-11-06,Siliguri,1.0,Moderate,193,PM2.5
2018-11-07,Siliguri,1.0,Poor,289,PM2.5
2018-11-08,Siliguri,1.0,Poor,249,PM2.5
2018-11-09,Siliguri,1.0,Moderate,186,PM2.5
2018-11-10,Siliguri,1.0,Moderate,107,PM10
2018-11-11,Siliguri,1.0,Satisfactory,94,PM10
2018-11-12,Siliguri,1.0,Poor,216,PM2.5
2018-11-13,Siliguri,1.0,Moderate,160,PM10
2018-11-14,Siliguri,1.0,Moderate,200,PM2.5
2018-11-15,Siliguri,1.0,Moderate,160,PM2.5
2018-11-16,Siliguri,1.0,Poor,202,PM2.5
2018-11-17,Siliguri,1.0,Poor,233,PM2.5
2018-11-18,Siliguri,1.0,Poor,246,PM2.5
2018-11-19,Siliguri,1.0,Moderate,177,PM2.5
2018-11-20,Siliguri,1.0,Moderate,160,PM2.5
2018-11-21,Siliguri,1.0,Poor,209,PM2.5
2018-11-22,Siliguri,1.0,Moderate,184,PM2.5
2018-11-23,Siliguri,1.0,Moderate,162,PM2.5
2018-11-24,Siliguri,1.0,Moderate,173,PM2.5
2018-11-25,Siliguri,1.0,Moderate,158,PM10
2018-11-26,Siliguri,1.0,Moderate,136,PM10
2018-11-27,Siliguri,1.0,Moderate,139,PM10
2018-11-28,Siliguri,1.0,Moderate,133,PM10
2018-11-29,Siliguri,1.0,Moderate,133,PM10
2018-11-30,Siliguri,1.0,Moderate,155,PM10
2018-12-01,Siliguri,1.0,Moderate,164,PM10
2018-12-02,Siliguri,1.0,Moderate,165,PM10
2018-12-04,Siliguri,1.0,Poor,242,PM2.5
2018-12-05,Siliguri,1.0,Moderate,182,PM2.5
2018-12-06,Siliguri,1.0,Moderate,188,PM2.5
2018-12-07,Siliguri,1.0,Poor,205,PM2.5
2018-12-08,Siliguri,1.0,Moderate,155,PM10
2018-12-09,Siliguri,1.0,Moderate,165,PM2.5
2018-12-10,Siliguri,1.0,Moderate,154,PM2.5
2018-12-11,Siliguri,1.0,Moderate,160,PM10
2018-12-13,Siliguri,1.0,Moderate,172,PM10
2018-12-14,Siliguri,1.0,Moderate,135,PM10
2018-12-16,Siliguri,1.0,Moderate,182,PM10
2018-12-17,Siliguri,1.0,Poor,208,PM10
2018-12-18,Siliguri,1.0,Moderate,173,PM10
2018-12-19,Siliguri,1.0,Moderate,189,PM2.5
2018-12-20,Siliguri,1.0,Poor,232,PM2.5
2018-12-21,Siliguri,1.0,Moderate,138,PM2.5
2018-12-24,Siliguri,1.0,Moderate,170,PM2.5
2018-12-25,Siliguri,1.0,Poor,235,PM2.5
2018-12-26,Siliguri,1.0,Poor,226,PM2.5
2018-12-27,Siliguri,1.0,Poor,287,PM2.5
2018-12-28,Siliguri,1.0,Poor,299,PM2.5
2018-12-29,Siliguri,1.0,Moderate,196,PM2.5
2018-12-30,Siliguri,1.0,Moderate,184,PM10
2018-12-31,Siliguri,1.0,Moderate,197,PM10
2019-01-01,Siliguri,1.0,Poor,235,PM10
2019-01-02,Siliguri,1.0,Moderate,182,PM10
2019-01-03,Siliguri,1.0,Poor,205,PM2.5
2019-01-04,Siliguri,1.0,Poor,234,PM2.5
2019-01-05,Siliguri,1.0,Poor,256,PM10
2019-01-06,Siliguri,1.0,Moderate,194,PM10
2019-01-07,Siliguri,1.0,Poor,275,PM10
2019-01-08,Siliguri,1.0,Poor,288,PM10
2019-01-09,Siliguri,1.0,Poor,252,PM2.5
2019-01-10,Siliguri,1.0,Very Poor,309,PM2.5
2019-01-11,Siliguri,1.0,Poor,263,PM2.5
2019-01-12,Siliguri,1.0,Poor,234,PM2.5
2019-01-13,Siliguri,1.0,Poor,232,PM10
2019-01-14,Siliguri,1.0,Poor,236,PM2.5
2019-01-15,Siliguri,1.0,Poor,282,PM2.5
2019-01-16,Siliguri,1.0,Very Poor,319,PM2.5
2019-01-17,Siliguri,1.0,Poor,249,PM10
2019-01-18,Siliguri,1.0,Poor,229,PM10
2019-01-19,Siliguri,1.0,Poor,212,PM2.5
2019-01-20,Siliguri,1.0,Poor,260,PM2.5
2019-01-21,Siliguri,1.0,Poor,227,PM2.5
2019-01-22,Siliguri,1.0,Poor,237,PM2.5
2019-01-24,Siliguri,1.0,Moderate,151,PM10
2019-01-25,Siliguri,1.0,Moderate,168,PM2.5
2019-01-26,Siliguri,1.0,Moderate,193,PM2.5
2019-01-27,Siliguri,1.0,Moderate,152,PM2.5
2019-01-28,Siliguri,1.0,Poor,206,PM2.5
2019-01-29,Siliguri,1.0,Poor,211,PM2.5
2019-01-30,Siliguri,1.0,Poor,206,PM2.5
2019-01-31,Siliguri,1.0,Poor,228,PM2.5
2019-02-01,Siliguri,1.0,Moderate,194,PM2.5
2019-02-02,Siliguri,1.0,Moderate,148,PM2.5
2019-02-03,Siliguri,1.0,Moderate,186,PM2.5
2019-02-04,Siliguri,1.0,Poor,291,PM2.5
2019-02-05,Siliguri,1.0,Poor,291,PM2.5
2019-02-06,Siliguri,1.0,Poor,293,PM2.5
2019-02-07,Siliguri,1.0,Very Poor,317,PM2.5
2019-02-08,Siliguri,1.0,Poor,262,PM2.5
2019-02-10,Siliguri,1.0,Satisfactory,56,PM2.5
2019-02-11,Siliguri,1.0,Moderate,111,PM2.5
2019-02-12,Siliguri,1.0,Moderate,152,PM10
2019-02-13,Siliguri,1.0,Moderate,185,PM2.5
2019-02-14,Siliguri,1.0,Moderate,160,PM10
2019-02-15,Siliguri,1.0,Poor,228,PM2.5
2019-02-16,Siliguri,1.0,Poor,288,PM2.5
2019-02-17,Siliguri,1.0,Satisfactory,64,PM10
2019-02-18,Siliguri,1.0,Moderate,160,PM2.5
2019-02-19,Siliguri,1.0,Moderate,159,PM2.5
2019-02-20,Siliguri,1.0,Moderate,118,PM10
2019-02-21,Siliguri,1.0,Moderate,110,PM2.5
2019-02-22,Siliguri,1.0,Moderate,145,PM10
2019-02-23,Siliguri,1.0,Moderate,146,PM2.5
2019-02-24,Siliguri,1.0,Moderate,170,PM2.5
2019-02-25,Siliguri,1.0,Moderate,181,PM2.5
2019-02-26,Siliguri,1.0,Moderate,174,PM2.5
2019-02-27,Siliguri,1.0,Moderate,112,PM2.5
2019-02-28,Siliguri,1.0,Satisfactory,77,PM10
2019-03-01,Siliguri,1.0,Satisfactory,60,OZONE
2019-03-02,Siliguri,1.0,Moderate,114,PM2.5
2019-03-03,Siliguri,1.0,Moderate,154,PM2.5
2019-03-04,Siliguri,1.0,Very Poor,305,SO2
2019-03-05,Siliguri,1.0,Moderate,149,PM2.5
2019-03-06,Siliguri,1.0,Moderate,123,PM2.5
2019-03-09,Siliguri,1.0,Moderate,142,PM2.5
2019-03-10,Siliguri,1.0,Moderate,183,PM2.5
2019-03-11,Siliguri,1.0,Moderate,185,PM2.5
2019-03-12,Siliguri,1.0,Poor,202,PM2.5
2019-03-13,Siliguri,1.0,Moderate,176,PM2.5
2019-03-14,Siliguri,1.0,Poor,219,PM2.5
2019-03-15,Siliguri,1.0,Poor,265,PM2.5
2019-03-16,Siliguri,1.0,Moderate,164,PM2.5
2019-03-17,Siliguri,1.0,Moderate,151,OZONE
2019-03-19,Siliguri,1.0,Moderate,154,OZONE
2019-03-20,Siliguri,1.0,Moderate,145,PM2.5
2019-03-21,Siliguri,1.0,Moderate,189,PM2.5
2019-03-22,Siliguri,1.0,Poor,221,PM2.5
2019-03-23,Siliguri,1.0,Moderate,159,PM2.5
2019-03-24,Siliguri,1.0,Poor,236,PM2.5
2019-03-25,Siliguri,1.0,Poor,260,PM2.5
2019-03-26,Siliguri,1.0,Poor,256,PM2.5
2019-03-27,Siliguri,1.0,Moderate,113,PM2.5
2019-03-28,Siliguri,1.0,Moderate,122,PM2.5
2019-03-29,Siliguri,1.0,Moderate,198,PM2.5
2019-03-31,Siliguri,1.0,Moderate,123,PM2.5
2019-04-01,Siliguri,1.0,Satisfactory,72,OZONE
2019-04-02,Siliguri,1.0,Satisfactory,71,OZONE
2019-04-03,Siliguri,1.0,Satisfactory,80,OZONE
2019-04-04,Siliguri,1.0,Satisfactory,69,PM10
2019-04-05,Siliguri,1.0,Satisfactory,61,PM10
2019-04-06,Siliguri,1.0,Satisfactory,72,PM10
2019-04-07,Siliguri,1.0,Satisfactory,64,OZONE
2019-04-08,Siliguri,1.0,Satisfactory,68,OZONE
2019-04-09,Siliguri,1.0,Satisfactory,58,OZONE
2019-04-10,Siliguri,1.0,Satisfactory,72,OZONE
2019-04-12,Siliguri,1.0,Satisfactory,89,PM10
2019-04-13,Siliguri,1.0,Moderate,111,PM10
2019-04-14,Siliguri,1.0,Satisfactory,66,PM10
2019-04-15,Siliguri,1.0,Satisfactory,52,OZONE
2019-04-16,Siliguri,1.0,Satisfactory,56,OZONE
2019-04-17,Siliguri,1.0,Satisfactory,75,OZONE
2019-04-18,Siliguri,1.0,Satisfactory,94,PM10
2019-04-19,Siliguri,1.0,Moderate,116,PM2.5
2019-04-20,Siliguri,1.0,Satisfactory,90,OZONE
2019-04-23,Siliguri,1.0,Satisfactory,83,OZONE
2019-04-24,Siliguri,1.0,Satisfactory,86,PM10
2019-04-25,Siliguri,1.0,Moderate,108,PM2.5
2019-04-26,Siliguri,1.0,Satisfactory,93,PM2.5
2019-04-27,Siliguri,1.0,Satisfactory,77,PM10
2019-04-28,Siliguri,1.0,Satisfactory,68,PM2.5
2019-04-29,Siliguri,1.0,Satisfactory,64,PM2.5
2019-04-30,Siliguri,1.0,Satisfactory,61,CO
2019-05-01,Siliguri,1.0,Good,49,PM2.5
2019-05-03,Siliguri,1.0,Good,49,CO
2019-05-04,Siliguri,1.0,Good,50,CO
2019-05-05,Siliguri,1.0,Satisfactory,51,CO
2019-05-06,Siliguri,1.0,Satisfactory,94,PM2.5
2019-05-07,Siliguri,1.0,Moderate,112,PM10
2019-05-08,Siliguri,1.0,Satisfactory,76,PM10
2019-05-09,Siliguri,1.0,Satisfactory,87,PM10
2019-05-10,Siliguri,1.0,Satisfactory,98,PM10
2019-05-11,Siliguri,1.0,Satisfactory,94,PM10
2019-05-12,Siliguri,1.0,Satisfactory,99,PM10
2019-05-14,Siliguri,1.0,Satisfactory,78,PM10
2019-05-15,Siliguri,1.0,Satisfactory,62,PM10
2019-05-16,Siliguri,1.0,Satisfactory,54,PM10
2019-05-17,Siliguri,1.0,Satisfactory,62,PM2.5
2019-05-18,Siliguri,1.0,Satisfactory,64,PM10
2019-05-19,Siliguri,1.0,Satisfactory,78,PM10
2019-05-20,Siliguri,1.0,Satisfactory,74,PM10
2019-05-21,Siliguri,1.0,Satisfactory,76,PM10
2019-05-22,Siliguri,1.0,Satisfactory,64,PM2.5
2019-05-23,Siliguri,1.0,Satisfactory,51,CO
2019-05-24,Siliguri,1.0,Good,49,OZONE
2019-05-25,Siliguri,1.0,Good,47,CO
2019-05-26,Siliguri,1.0,Good,43,CO
2019-05-27,Siliguri,1.0,Satisfactory,71,PM10
2019-05-28,Siliguri,1.0,Satisfactory,54,PM10
2019-05-29,Siliguri,1.0,Satisfactory,52,OZONE
2019-05-30,Siliguri,1.0,Satisfactory,58,OZONE
2019-05-31,Siliguri,1.0,Satisfactory,62,OZONE
2019-06-01,Siliguri,1.0,Satisfactory,71,OZONE
2019-06-02,Siliguri,1.0,Satisfactory,76,PM10
2019-06-03,Siliguri,1.0,Satisfactory,55,PM10
2019-06-04,Siliguri,1.0,Satisfactory,52,PM10
2019-06-05,Siliguri,1.0,Good,50,OZONE
2019-06-06,Siliguri,1.0,Satisfactory,51,CO
2019-06-07,Siliguri,1.0,Satisfactory,59,CO
2019-06-09,Siliguri,1.0,Good,47,PM10
2019-06-10,Siliguri,1.0,Good,40,CO
2019-06-11,Siliguri,1.0,Good,43,CO
2019-06-12,Siliguri,1.0,Satisfactory,59,PM10
2019-06-13,Siliguri,1.0,Satisfactory,70,PM10
2019-06-14,Siliguri,1.0,Satisfactory,87,PM10
2019-06-15,Siliguri,1.0,Satisfactory,53,CO
2019-06-16,Siliguri,1.0,Good,50,CO
2019-06-17,Siliguri,1.0,Satisfactory,59,PM2.5
2019-06-18,Siliguri,1.0,Satisfactory,68,PM10
2019-06-19,Siliguri,1.0,Satisfactory,62,PM10
2019-06-20,Siliguri,1.0,Satisfactory,81,PM10
2019-06-21,Siliguri,1.0,Satisfactory,80,PM10
2019-06-22,Siliguri,1.0,Good,43,PM10
2019-06-23,Siliguri,1.0,Good,44,PM10
2019-06-24,Siliguri,1.0,Satisfactory,53,PM10
2019-06-25,Siliguri,1.0,Satisfactory,51,CO
2019-06-26,Siliguri,1.0,Good,48,CO
2019-06-28,Siliguri,1.0,Good,47,PM10
2019-06-29,Siliguri,1.0,Satisfactory,61,PM10
2019-06-30,Siliguri,1.0,Good,41,CO
2019-07-01,Siliguri,1.0,Satisfactory,74,PM10
2019-07-02,Siliguri,1.0,Good,47,CO
2019-07-03,Siliguri,1.0,Good,48,CO
2019-07-04,Siliguri,1.0,Good,44,CO
2019-07-05,Siliguri,1.0,Good,44,CO
2019-07-06,Siliguri,1.0,Satisfactory,53,CO
2019-07-07,Siliguri,1.0,Satisfactory,53,CO
2019-07-08,Siliguri,1.0,Satisfactory,55,CO
2019-07-09,Siliguri,1.0,Satisfactory,51,CO
2019-07-10,Siliguri,1.0,Satisfactory,55,CO
2019-07-11,Siliguri,1.0,Good,39,NO2
2019-07-12,Siliguri,1.0,Good,24,NO2
2019-07-13,Siliguri,1.0,Good,32,PM10
2019-07-14,Siliguri,1.0,Good,25,PM2.5
2019-07-15,Siliguri,1.0,Good,20,NO2
2019-07-16,Siliguri,1.0,Good,26,OZONE
2019-07-17,Siliguri,1.0,Good,48,PM2.5
2019-07-18,Siliguri,1.0,Satisfactory,58,PM10
2019-07-19,Siliguri,1.0,Good,44,PM10
2019-07-20,Siliguri,1.0,Good,40,PM2.5
2019-07-21,Siliguri,1.0,Good,33,PM2.5
2019-07-23,Siliguri,1.0,Good,30,PM2.5
2019-07-24,Siliguri,1.0,Good,30,CO
2019-07-25,Siliguri,1.0,Good,32,CO
2019-07-26,Siliguri,1.0,Good,32,PM2.5
2019-07-27,Siliguri,1.0,Good,24,CO
2019-07-28,Siliguri,1.0,Good,24,CO
2019-07-29,Siliguri,1.0,Good,25,CO
2019-07-30,Siliguri,1.0,Good,30,CO
2019-07-31,Siliguri,1.0,Good,32,CO
2019-08-01,Siliguri,1.0,Good,34,CO
2019-08-02,Siliguri,1.0,Good,31,PM10
2019-08-03,Siliguri,1.0,Good,32,PM10
2019-08-04,Siliguri,1.0,Good,45,PM10
2019-08-05,Siliguri,1.0,Good,42,PM10
2019-08-06,Siliguri,1.0,Good,50,PM10
2019-08-07,Siliguri,1.0,Good,33,PM10
2019-08-08,Siliguri,1.0,Good,30,CO
2019-08-09,Siliguri,1.0,Good,20,CO
2019-08-11,Siliguri,1.0,Good,38,PM10
2019-08-12,Siliguri,1.0,Satisfactory,63,PM10
2019-08-14,Siliguri,1.0,Good,23,CO
2019-08-15,Siliguri,1.0,Good,27,PM10
2019-08-16,Siliguri,1.0,Good,30,PM2.5
2019-08-17,Siliguri,1.0,Good,36,PM2.5
2019-08-18,Siliguri,1.0,Good,45,PM2.5
2019-08-19,Siliguri,1.0,Good,35,PM10
2019-08-20,Siliguri,1.0,Good,46,PM10
2019-08-21,Siliguri,1.0,Good,46,PM2.5
2019-08-23,Siliguri,1.0,Satisfactory,52,PM2.5
2019-08-25,Siliguri,1.0,Good,31,PM10
2019-08-26,Siliguri,1.0,Good,40,PM10
2019-08-27,Siliguri,1.0,Satisfactory,54,PM10
2019-08-28,Siliguri,1.0,Satisfactory,61,PM2.5
2019-08-29,Siliguri,1.0,Good,40,PM10
2019-08-30,Siliguri,1.0,Satisfactory,53,PM2.5
2019-08-31,Siliguri,1.0,Good,34,PM10
2019-09-01,Siliguri,1.0,Satisfactory,58,PM10
2019-09-02,Siliguri,1.0,Satisfactory,57,PM10
2019-09-03,Siliguri,1.0,Good,32,PM10
2019-09-04,Siliguri,1.0,Good,36,PM10
2019-09-06,Siliguri,1.0,Good,27,PM10
2019-09-07,Siliguri,1.0,Good,37,PM10
2019-09-08,Siliguri,1.0,Good,24,PM10
2019-09-09,Siliguri,1.0,Good,26,PM10
2019-09-10,Siliguri,1.0,Good,33,PM10
2019-09-11,Siliguri,1.0,Good,37,PM10
2019-09-12,Siliguri,1.0,Good,43,PM10
2019-09-13,Siliguri,1.0,Good,21,NO2
2019-09-14,Siliguri,1.0,Good,30,PM10
2019-09-15,Siliguri,1.0,Good,47,PM10
2019-09-16,Siliguri,1.0,Good,45,PM10
2019-09-20,Siliguri,1.0,Good,47,PM10
2019-09-21,Siliguri,1.0,Good,44,PM10
2019-09-22,Siliguri,1.0,Good,43,PM10
2019-09-23,Siliguri,1.0,Good,34,PM10
2019-09-24,Siliguri,1.0,Good,32,PM10
2019-09-25,Siliguri,1.0,Good,28,NO2
2019-09-26,Siliguri,1.0,Good,33,PM10
2019-09-27,Siliguri,1.0,Good,29,PM10
2019-09-28,Siliguri,1.0,Good,30,NO2
2019-09-29,Siliguri,1.0,Good,28,NO2
2019-09-30,Siliguri,1.0,Good,26,OZONE
2019-10-01,Siliguri,1.0,Good,32,PM10
2019-10-02,Siliguri,1.0,Good,37,PM10
2019-10-03,Siliguri,1.0,Good,50,PM10
2019-10-04,Siliguri,1.0,Satisfactory,53,PM10
2019-10-05,Siliguri,1.0,Good,45,PM10
2019-10-06,Siliguri,1.0,Satisfactory,66,PM10
2019-10-07,Siliguri,1.0,Satisfactory,70,PM10
2019-10-08,Siliguri,1.0,Good,44,OZONE
2019-10-09,Siliguri,1.0,Good,43,OZONE
2019-10-10,Siliguri,1.0,Good,43,PM10
2019-10-11,Siliguri,1.0,Good,38,OZONE
2019-10-12,Siliguri,1.0,Good,44,PM10
2019-10-13,Siliguri,1.0,Satisfactory,74,PM10
2019-10-14,Siliguri,1.0,Satisfactory,76,PM10
2019-10-15,Siliguri,1.0,Satisfactory,61,PM10
2019-10-16,Siliguri,1.0,Satisfactory,60,PM10
2019-10-17,Siliguri,1.0,Satisfactory,70,PM10
2019-10-18,Siliguri,1.0,Satisfactory,82,PM10
2019-10-19,Siliguri,1.0,Satisfactory,88,PM2.5
2019-10-20,Siliguri,1.0,Moderate,110,PM2.5
2019-10-21,Siliguri,1.0,Moderate,150,PM2.5
2019-10-22,Siliguri,1.0,Moderate,166,PM2.5
2019-10-23,Siliguri,1.0,Poor,234,PM2.5
2019-10-24,Siliguri,1.0,Moderate,194,PM2.5
2019-10-25,Siliguri,1.0,Satisfactory,70,PM2.5
2019-10-26,Siliguri,1.0,Good,49,PM10
2019-10-27,Siliguri,1.0,Satisfactory,56,PM10
2019-10-28,Siliguri,1.0,Moderate,197,PM2.5
2019-10-29,Siliguri,1.0,Moderate,129,PM10
2019-10-30,Siliguri,1.0,Satisfactory,99,PM10